Regional Weather Roundup
Issued by NWS

Home | Current Version | Previous Version | Graphics & Text | Print | Product List | Glossary On
Versions: 1 2 3 4 5 6 7 8 9 10 11 12 13 14 15 16 17 18 19 20 21 22 23 24 25 26 27 28 29 30 31 32 33 34 35 36 37 38 39 40 41 42 43 44 45 46 47 48 49 50
000
ASUS43 KDMX 240603
RWRIA

WEATHER ROUNDUP FOR IOWA
NATIONAL WEATHER SERVICE DES MOINES IA
100 AM CDT TUE MAY 24 2016

NOTE: "FAIR" INDICATES FEW OR NO CLOUDS BELOW 12,000 FEET WITH NO
SIGNIFICANT WEATHER AND/OR OBSTRUCTIONS TO VISIBILITY.

* - THESE STATIONS ARE NOT NWS STATIONS...THUS NOT UNDER NWS
QUALITY CONTROL.  THEY ALSO DO NOT REPORT WEATHER SUCH
AS PRECIPITATION OR FOG.

IAZ001>003-012>014-020>022-031>034-043>046-240700-
   NORTHWEST IOWA

CITY           SKY/WX    TMP DP  RH WIND       PRES   REMARKS
CARROLL *      CLOUDY    63  61  94 S7        29.87S
CHEROKEE *     CLOUDY    64  64  97 S10       29.79F
DENISON *      RAIN      63  63 100 S14       29.86R
LE MARS *      CLOUDY    66  63  88 S10       29.80S
ORANGE CITY *  CLEAR     64  63  94 S5        29.80F
SHELDON *        N/A     64  63  94 S8        29.79F
SIOUX CITY       N/A    N/A N/A N/A MISG      29.81R
SPENCER        MOCLDY    64  61  90 S5        29.81S
6HR MIN TEMP:  64; 6HR MAX TEMP:  68; 6HR PCP:  0.33;

STORM LAKE *   CLOUDY    64  61  88 S25G33    29.80F
$$

IAZ055>058-069>071-079>083-090>094-240700-
   SOUTHWEST IOWA

CITY           SKY/WX    TMP DP  RH WIND       PRES   REMARKS
ATLANTIC *     CLOUDY    66  63  88 S7        29.86S
AUDUBON *      RAIN      64  61  88 SW7G17    29.89R
CLARINDA *       N/A     66  63  88 MISG      29.88F
COUNCIL BLFS * LGT RAIN  66  63  88 S8        29.85S
CRESTON *      CLOUDY    64  61  88 SW9       29.90S
HARLAN  *        N/A    N/A N/A N/A MISG        N/A
LAMONI         CLOUDY    66  61  84 S9        29.90R
6HR MIN TEMP:  65; 6HR MAX TEMP:  70;

RED OAK *      CLOUDY    66  63  88 S8        29.86F
SHENANDOAH *   CLOUDY    68  63  83 S8        29.87R
$$

IAZ047>049-059>061-072>074-084-240700-
   CENTRAL IOWA

CITY           SKY/WX    TMP DP  RH WIND       PRES   REMARKS
AMES           CLOUDY    58  56  93 W3        29.87S
6HR MIN TEMP:  58; 6HR MAX TEMP:  71;

ANKENY *       CLOUDY    66  63  88 S6        29.87S
BOONE *        PTCLDY    61  59  94 CALM      29.86F
CHARITON *     CLOUDY    66  61  82 S9        29.89S
DES MOINES     MOCLDY    68  60  75 S8        29.87S
6HR MIN TEMP:  66; 6HR MAX TEMP:  73;

GRINNELL*      CLOUDY    66  54  66 S8        29.89S
KNOXVILLE *    CLOUDY    66  59  77 S7        29.87S
MARSHALLTOWN   PTCLDY    66  55  67 S6        29.87R
6HR MIN TEMP:  65; 6HR MAX TEMP:  76;

NEWTON *       CLOUDY    64  55  72 S8        29.88R
PELLA *        CLOUDY    65  56  70 SE5       29.89S
PERRY *          N/A     61  59  94 CALM      29.87S
$$

IAZ004>006-015-016-023>025-035-036-240700-
   NORTH CENTRAL IOWA

CITY           SKY/WX    TMP DP  RH WIND       PRES   REMARKS
ALGONA *       MOCLDY    64  61  88 S16       29.83F
CLARION *      CLOUDY    64  61  88 S9        29.85F
ESTHERVILLE    CLOUDY    63  61  93 S13       29.80F
6HR MIN TEMP:  63; 6HR MAX TEMP:  71; 6HR PCP:  0.07;

FORT DODGE *   PTCLDY    64  57  77 S7        29.86F
MASON CITY     CLOUDY    65  61  87 S10       29.86S
6HR MIN TEMP:  64; 6HR MAX TEMP:  71;

FOREST CITY *  CLOUDY    64  59  82 S14       29.85S
WEBSTER CITY * CLOUDY    64  61  88 S8        29.84F
IOWA FALLS *   MOCLDY    65  59  82 SW3       29.89S
$$

IAZ007>011-017>019-026>030-037>042-050>054-066-240700-
   NORTHEAST IOWA

CITY           SKY/WX    TMP DP  RH WIND       PRES   REMARKS
CEDAR RAPIDS   PTCLDY    66  54  65 S8        29.89R
6HR MIN TEMP:  64; 6HR MAX TEMP:  79;

CHARLES CITY * CLOUDY    68  63  83 SW6       29.88S
CLINTON *      PTCLDY    65  49  56 S5        29.92S
DECORAH *      CLOUDY    70  54  56 S7        29.87R
DUBUQUE        MOCLDY    66  49  54 S12       29.90F
6HR MIN TEMP:  60; 6HR MAX TEMP:  78;

MONTICELLO *   MOCLDY    66  50  55 S8        29.89S
OELWEIN *      CLOUDY    66  54  63 S7        29.89R
WATERLOO       MOCLDY    67  53  61 S6        29.87R
6HR MIN TEMP:  67; 6HR MAX TEMP:  78;

$$

IAZ064-065-067-068-078-240700-
   EAST CENTRAL IOWA

CITY           SKY/WX    TMP DP  RH WIND       PRES   REMARKS
DAVENPORT      CLOUDY    67  48  50 S7        29.92R
6HR MIN TEMP:  64; 6HR MAX TEMP:  80;

IOWA CITY      PTCLDY    64  54  69 CALM      29.91R
6HR MIN TEMP:  63; 6HR MAX TEMP:  79;

MT. PLEASANT * PTCLDY    68  52  56 S7        29.91R
MUSCATINE *    CLEAR     66  50  55 S5        29.91R
QUAD CITIES    CLOUDY    68  48  48 CALM      29.91R
6HR MIN TEMP:  62; 6HR MAX TEMP:  81;

$$

IAZ062-063-075>077-085>089-095>099-240700-
   SOUTHEAST IOWA

CITY           SKY/WX    TMP DP  RH WIND       PRES   REMARKS
BURLINGTON     CLEAR     66  51  58 S7        29.91R
6HR MIN TEMP:  65; 6HR MAX TEMP:  77;

FAIRFIELD *      N/A    N/A N/A N/A MISG        N/A
FORT MADISON * PTCLDY    66  52  59 S7        29.93R
KEOKUK *       PTCLDY    68  52  56 S6        29.91S
OSKALOOSA *      N/A     64  55  72 S8        29.90R
OTTUMWA        CLOUDY    66  55  67 S8        29.90R
6HR MIN TEMP:  66; 6HR MAX TEMP:  76;

WASHINGTON *   CLEAR     64  54  68 S8        29.92R
$$

ABBREVIATIONS USED IN REMARKS
   TC - TEMPERATURES IN CELSIUS
  WCI - WIND CHILL INDEX
   HX - HEAT INDEX
  VSB - VISIBILITY
$$




USA.gov is the U.S. government's official web portal to all federal, state and local government web resources and services.